Location: Tierra del Sol
(32.6128°N, 116.3319°W)
Time: 14:56:56
(UTC-08:00)

Amateur Radio Satellites - All Passes

Search period start: 16 January 2018 14:26
Search period end: 17 January 2018 14:26
Location: Tierra del Sol, 32.6128°N, 116.3319°W

Satellite Date Start Highest point End Downlink Frequencies (MHz)
Time Altitude Azimuth
AO-7 16 Jan 14:28:40 14:37:01 89° 252° (WSW) 14:45:27 .
MOZHAYETS 4 16 Jan 14:33:18 14:37:46 47° 99° (E) 14:42:12
50 SAT 16 Jan 14:35:23 14:36:46 12° 290° (WNW) 14:38:09 437.505
RS-15 16 Jan 14:36:22 14:40:40 12° 18° (NNE) 14:44:53 29.354- 29.394
SO-50 16 Jan 14:47:41 14:51:52 31° 56° (NE) 14:56:06 436.795
ITUPSAT 1 16 Jan 14:52:08 14:56:40 40° 99° (E) 15:01:10 437.325
M-CUBED/EXP-1 PRIME 16 Jan 14:52:57 14:56:50 29° 68° (ENE) 15:00:34 437.505
DOVE 4 16 Jan 14:54:54 14:57:41 17° 70° (ENE) 15:00:24 437.250
JUGNU 16 Jan 15:22:49 15:26:51 19° 190° (S) 15:30:55 437.505
SRMSAT 16 Jan 15:32:58 15:37:30 22° 174° (S) 15:42:02 437.500
BEESAT 16 Jan 15:35:06 15:39:51 64° 285° (WNW) 15:44:34 436.000
CUBESAT XI-V 16 Jan 16:00:03 16:04:40 78° 284° (WNW) 16:09:14 437.345
ITAMSAT 1 16 Jan 16:06:18 16:09:35 17° 265° (W) 16:12:53 435.822/435.867
MOZHAYETS 4 16 Jan 16:12:09 16:14:27 14° 293° (WNW) 16:16:44
LilacSat-2 16 Jan 16:12:21 16:14:45 16° 70° (ENE) 16:17:10 437.200
XW-2C 16 Jan 16:20:38 16:23:20 19° 71° (ENE) 16:26:03 145.795 - 145.815
AO-7 16 Jan 16:26:38 16:30:34 14° 267° (W) 16:34:32 .
M-CUBED/EXP-1 PRIME 16 Jan 16:27:38 16:31:05 21° 259° (W) 16:34:26 437.505
SO-50 16 Jan 16:28:22 16:32:09 24° 249° (WSW) 16:35:59 436.795
ITUPSAT 1 16 Jan 16:31:01 16:34:07 17° 293° (WNW) 16:37:13 437.325
DOVE 4 16 Jan 16:31:05 16:35:08 33° 262° (W) 16:39:00 437.250
KKS-1 16 Jan 16:38:18 16:42:21 34° 99° (E) 16:46:23 437.445
RS-15 16 Jan 16:47:11 16:57:56 40° 49° (NE) 17:08:07 29.354- 29.394
XW-2F 16 Jan 17:00:41 17:04:26 59° 76° (ENE) 17:08:12 145.980 - 146.000
CUTE-I 16 Jan 17:02:13 17:07:23 55° 73° (ENE) 17:12:34 437.470
XW-2D 16 Jan 17:05:58 17:09:47 82° 78° (ENE) 17:13:38 145.860 - 145.880
KAITUO 1B 16 Jan 17:07:42 17:11:22 53° 76° (ENE) 17:15:03 145.475/437.950
STARS 16 Jan 17:08:32 17:12:18 27° 97° (E) 17:16:03 437.465
SRMSAT 16 Jan 17:21:30 17:26:05 23° 185° (S) 17:30:42 437.500
XW-2B 16 Jan 17:23:25 17:27:13 59° 260° (W) 17:31:00 145.730 - 145.750
NUDT-PHONESAT 16 Jan 17:27:42 17:31:26 83° 258° (WSW) 17:35:11 437.300
CUBEBUG 2 16 Jan 17:36:05 17:39:35 25° 71° (ENE) 17:43:11 437.445
HO-68 16 Jan 17:39:15 17:46:17 63° 71° (ENE) 17:53:20 435.675
LilacSat-2 16 Jan 17:45:28 17:48:45 26° 263° (W) 17:52:04 437.200
NO-84 16 Jan 17:47:53 17:50:56 53° 312° (NW) 17:53:48 435.350 FM
UWE-3 16 Jan 17:51:59 17:55:14 21° 70° (ENE) 17:58:33 435.000/436.395/437.385
XW-2C 16 Jan 17:54:16 17:57:18 22° 264° (W) 18:00:22 145.795 - 145.815
AAUSAT CUBESAT 2 16 Jan 18:08:16 18:11:29 22° 71° (ENE) 18:14:42 437.432
SEEDS 16 Jan 18:10:34 18:14:46 65° 76° (ENE) 18:18:57 437.485
CUTE 1.7 + AOD 2 16 Jan 18:13:28 18:17:42 64° 260° (W) 18:21:57 437.475
KKS-1 16 Jan 18:15:40 18:18:34 17° 292° (WNW) 18:21:30 437.445
ZACube-1 16 Jan 18:26:12 18:29:50 26° 71° (ENE) 18:33:32 437.345
AO-73 16 Jan 18:35:51 18:39:37 29° 72° (ENE) 18:43:29 145.935
STRAND 1 16 Jan 18:38:01 18:42:40 34° 98° (E) 18:47:19 437.568
CUTE-I 16 Jan 18:44:53 18:47:40 14° 267° (W) 18:50:28 437.470
STARS 16 Jan 18:45:08 18:48:25 21° 291° (WNW) 18:51:42 437.465
FO-29 16 Jan 18:46:08 18:48:47 14° 93° (E) 18:51:26 435.910
BEESAT 3 16 Jan 18:55:25 18:58:26 21° 54° (NE) 19:01:24 437.485
RS-15 16 Jan 18:59:34 19:10:35 55° 250° (WSW) 19:21:06 29.354- 29.394
XW-2A 16 Jan 19:03:12 19:06:36 76° 259° (W) 19:10:02 145.665 - 145.685
SRMSAT 16 Jan 19:11:14 19:14:38 15° 194° (SSW) 19:18:03 437.500
CUBEBUG 2 16 Jan 19:12:53 19:16:07 21° 265° (W) 19:19:26 437.445
Oscar 11 16 Jan 19:14:06 19:18:18 51° 75° (ENE) 19:22:32 .
UWE-3 16 Jan 19:27:50 19:31:28 26° 264° (W) 19:35:12 435.000/436.395/437.385
HO-68 16 Jan 19:29:28 19:34:21 19° 266° (W) 19:39:16 435.675
BEESAT 2 16 Jan 19:32:14 19:34:26 14° 51° (NE) 19:36:35 435.950
DELFI C3 16 Jan 19:32:15 19:33:31 11° 68° (ENE) 19:34:47 145.870
PCSat 16 Jan 19:34:59 19:40:11 45° 61° (ENE) 19:45:21 145.827
AAUSAT CUBESAT 2 16 Jan 19:43:32 19:46:46 22° 264° (W) 19:50:01 437.432
nSIGHT-1 16 Jan 19:57:55 19:59:14 12° 126° (SE) 20:00:34 .
ZACube-1 16 Jan 20:02:40 20:06:00 21° 265° (W) 20:09:25 437.345
EO-88 16 Jan 20:06:49 20:08:09 12° 69° (ENE) 20:09:29 145.990 - 145.960
AO-73 16 Jan 20:12:43 20:15:49 19° 266° (W) 20:18:59 145.935
UNISAT 6 16 Jan 20:16:06 20:17:52 12° 92° (E) 20:19:39 437.425
STRAND 1 16 Jan 20:17:39 20:21:35 23° 292° (WNW) 20:25:31 437.568
FO-29 16 Jan 20:29:11 20:34:11 48° 287° (WNW) 20:39:11 435.910
BEESAT 3 16 Jan 20:32:44 20:35:50 23° 249° (WSW) 20:38:54 437.485
Oscar 11 16 Jan 20:53:54 20:54:39 10° 268° (W) 20:55:24 .
DELFI C3 16 Jan 21:04:09 21:07:50 39° 261° (W) 21:11:32 145.870
Max Valier Satellite 16 Jan 21:07:40 21:11:18 55° 260° (W) 21:14:59 145.860
BEESAT 2 16 Jan 21:08:33 21:12:17 40° 247° (WSW) 21:15:58 435.950
YUBILEINY 16 Jan 21:14:51 21:15:44 10° 77° (ENE) 21:16:37 435.215
PCSat 16 Jan 21:19:27 21:23:09 19° 255° (WSW) 21:26:52 145.827
ISS 16 Jan 21:26:05 21:29:19 80° 314° (NW) 21:32:35 437.550
nSIGHT-1 16 Jan 21:32:06 21:35:06 39° 320° (NW) 21:38:06 .
AO-85 16 Jan 21:33:28 21:38:22 49° 59° (ENE) 21:43:29 145.980
TIGRISAT 16 Jan 21:36:06 21:40:49 85° 283° (WNW) 21:45:30 435.000
EO-88 16 Jan 21:38:06 21:41:25 32° 262° (W) 21:44:44 145.990 - 145.960
LO-87 16 Jan 21:39:39 21:42:17 20° 72° (ENE) 21:44:56 145.935 - 145.965
UNISAT 6 16 Jan 21:50:13 21:54:47 53° 285° (WNW) 21:59:20 437.425
PRISM 16 Jan 21:53:00 21:56:33 29° 98° (E) 22:00:06 437.425
ESTCUBE 1 16 Jan 22:21:10 22:25:38 61° 75° (ENE) 22:30:06 437.505/2401.250
EO-79 16 Jan 22:37:08 22:38:33 11° 93° (E) 22:39:58 145.935-145.965
VELOX 1 16 Jan 22:44:19 22:45:56 12° 66° (ENE) 22:47:34 145.980
YUBILEINY 16 Jan 23:02:09 23:10:57 76° 93° (E) 23:19:44 435.215
AIST 2D 16 Jan 23:08:30 23:11:54 55° 283° (WNW) 23:15:16 435.315
POLYITAN 1 16 Jan 23:08:46 23:12:31 29° 97° (E) 23:16:15 437.675
LO-87 16 Jan 23:13:12 23:15:33 17° 265° (W) 23:17:56 145.935 - 145.965
SPROUT 16 Jan 23:14:08 23:18:14 51° 75° (ENE) 23:22:22 437.525
AO-85 16 Jan 23:15:03 23:18:29 18° 251° (WSW) 23:21:59 145.980
NANOSAT C BR1 16 Jan 23:28:33 23:32:39 45° 99° (E) 23:36:43 145.865
PRISM 16 Jan 23:28:57 23:31:33 17° 291° (WNW) 23:34:09 437.425
QB50P2 16 Jan 23:37:35 23:41:53 79° 104° (ESE) 23:46:09 145.880/145.840
AO-91 16 Jan 23:58:25 23:59:53 11° 95° (E) 00:01:24 145.960
BUGSAT 1 17 Jan 00:00:02 00:02:53 17° 95° (E) 00:05:44 437.445
Oscar 19 17 Jan 00:08:38 00:11:21 14° 93° (E) 00:14:02 437.125/150
EO-79 17 Jan 00:10:22 00:14:28 45° 286° (WNW) 00:18:31 145.935-145.965
DUCHIFAT 1 17 Jan 00:14:56 00:19:06 54° 285° (WNW) 00:23:13 145.980
VELOX 1 17 Jan 00:17:38 00:21:53 49° 260° (W) 00:26:10 145.980
O/OREOS (USA 219) 17 Jan 00:43:57 00:48:28 88° 113° (ESE) 00:53:00 437.305
POLYITAN 1 17 Jan 00:45:03 00:48:01 18° 291° (WNW) 00:50:59 437.675
UKube-1 17 Jan 00:46:20 00:50:10 32° 72° (ENE) 00:53:59 .
DX 1 17 Jan 00:47:59 00:52:15 61° 75° (ENE) 00:56:31 434.975-435.025
50 SAT 17 Jan 00:53:36 00:56:39 65° 76° (ENE) 00:59:42 437.505
Gurwin Techsat 1B 17 Jan 00:56:01 01:00:49 34° 98° (E) 01:05:35 435.225
YUBILEINY 17 Jan 01:02:44 01:08:30 19° 290° (WNW) 01:14:20 435.215
NANOSAT C BR1 17 Jan 01:06:09 01:07:54 12° 293° (WNW) 01:09:37 145.865
MOZHAYETS 4 17 Jan 01:30:51 01:34:42 27° 71° (ENE) 01:38:35
AO-91 17 Jan 01:32:05 01:36:22 54° 284° (WNW) 01:41:06 145.960
BUGSAT 1 17 Jan 01:34:30 01:38:12 29° 288° (WNW) 01:41:53 437.445
Oscar 19 17 Jan 01:45:52 01:50:53 52° 287° (WNW) 01:55:52 437.125/150
ITUPSAT 1 17 Jan 01:54:37 01:58:40 29° 70° (ENE) 02:02:45 437.325
NO-84 17 Jan 02:00:19 02:03:19 72° 230° (SW) 02:06:30 435.350 FM
UKube-1 17 Jan 02:23:29 02:26:11 16° 265° (W) 02:28:54 .
AO-7 17 Jan 02:35:53 02:43:39 41° 101° (E) 02:51:21 .
Gurwin Techsat 1B 17 Jan 02:36:20 02:40:31 24° 292° (WNW) 02:44:41 435.225
BEESAT 17 Jan 02:36:33 02:41:18 87° 77° (ENE) 02:46:06 436.000
ITAMSAT 1 17 Jan 02:43:02 02:47:06 23° 96° (E) 02:51:08 435.822/435.867
CUBESAT XI-V 17 Jan 02:58:17 03:02:54 59° 75° (ENE) 03:07:32 437.345
MOZHAYETS 4 17 Jan 03:08:07 03:11:45 23° 264° (W) 03:15:25
ITUPSAT 1 17 Jan 03:32:39 03:36:24 23° 264° (W) 03:40:12 437.325
KKS-1 17 Jan 03:32:39 03:35:43 19° 69° (ENE) 03:38:46 437.445
FALCONSAT 3 17 Jan 03:56:32 03:59:13 19° 150° (SSE) 04:01:54 435.103
ISS 17 Jan 03:58:15 04:00:17 15° 33° (NNE) 04:02:18 437.550
STARS 17 Jan 04:01:57 04:04:16 14° 67° (ENE) 04:06:36 437.465
nSIGHT-1 17 Jan 04:02:21 04:04:56 22° 37° (NE) 04:07:31 .
M-CUBED/EXP-1 PRIME 17 Jan 04:09:45 04:12:48 32° 103° (ESE) 04:15:44 437.505
ITAMSAT 1 17 Jan 04:21:53 04:26:32 34° 289° (WNW) 04:31:10 435.822/435.867
AO-7 17 Jan 04:28:42 04:36:13 39° 296° (WNW) 04:43:42 .
DOVE 4 17 Jan 04:33:00 04:37:21 86° 101° (ESE) 04:41:55 437.250
CUBESAT XI-V 17 Jan 04:39:51 04:40:32 10° 268° (W) 04:41:13 437.345
XW-2D 17 Jan 04:44:57 04:46:09 11° 93° (E) 04:47:19 145.860 - 145.880
SO-50 17 Jan 04:57:58 05:01:37 26° 111° (ESE) 05:05:19 436.795
XW-2B 17 Jan 05:01:03 05:03:41 18° 95° (E) 05:06:18 145.730 - 145.750
NUDT-PHONESAT 17 Jan 05:03:52 05:05:18 12° 94° (E) 05:06:43 437.300
KKS-1 17 Jan 05:08:05 05:11:59 31° 262° (W) 05:15:55 437.445
HO-68 17 Jan 05:14:46 05:18:07 14° 92° (E) 05:21:27 435.675
LilacSat-2 17 Jan 05:22:28 05:26:03 40° 99° (E) 05:29:36 437.200
CUTE-I 17 Jan 05:24:05 05:28:48 32° 98° (E) 05:33:29 437.470
XW-2C 17 Jan 05:30:13 05:33:52 47° 99° (E) 05:37:28 145.795 - 145.815
ISS 17 Jan 05:33:46 05:36:55 46° 228° (SW) 05:40:04 437.550
FALCONSAT 3 17 Jan 05:34:19 05:37:59 79° 163° (SSE) 05:41:39 435.103
STARS 17 Jan 05:36:08 05:40:12 39° 261° (W) 05:44:18 437.465
nSIGHT-1 17 Jan 05:38:23 05:41:03 24° 231° (SW) 05:43:41 .
STRAND 1 17 Jan 05:49:36 05:54:02 31° 70° (ENE) 05:58:27 437.568
SEEDS 17 Jan 06:00:08 06:02:29 15° 94° (E) 06:04:50 437.485
CUTE 1.7 + AOD 2 17 Jan 06:03:03 06:06:44 29° 97° (E) 06:10:23 437.475
XW-2F 17 Jan 06:10:53 06:14:29 46° 284° (WNW) 06:18:02 145.980 - 146.000
KAITUO 1B 17 Jan 06:16:41 06:20:18 52° 284° (WNW) 06:23:51 145.475/437.950
XW-2D 17 Jan 06:16:58 06:20:22 33° 286° (WNW) 06:23:45 145.860 - 145.880
XW-2B 17 Jan 06:34:51 06:37:44 21° 288° (WNW) 06:40:36 145.730 - 145.750
FO-29 17 Jan 06:34:55 06:41:38 43° 72° (ENE) 06:47:41 435.910
NUDT-PHONESAT 17 Jan 06:35:55 06:39:09 30° 286° (WNW) 06:42:22 437.300
SO-50 17 Jan 06:38:15 06:41:57 25° 306° (NW) 06:45:43 436.795
HO-68 17 Jan 06:59:15 07:06:26 82° 286° (WNW) 07:13:35 435.675
LilacSat-2 17 Jan 06:59:43 06:59:52 10° 292° (WNW) 07:00:00 437.200
RS-15 17 Jan 07:03:53 07:14:44 39° 106° (ESE) 07:25:33 29.354- 29.394
CUTE-I 17 Jan 07:04:19 07:08:39 26° 291° (WNW) 07:12:58 437.470
CUBEBUG 2 17 Jan 07:06:25 07:11:11 75° 284° (WNW) 07:15:55 437.445
Oscar 11 17 Jan 07:07:27 07:09:33 13° 93° (E) 07:11:36 .
FALCONSAT 3 17 Jan 07:13:34 07:17:10 53° 357° (N) 07:20:46 435.103
UWE-3 17 Jan 07:20:45 07:25:26 86° 98° (E) 07:30:04 435.000/436.395/437.385
AAUSAT CUBESAT 2 17 Jan 07:28:45 07:32:50 78° 100° (E) 07:36:55 437.432
STRAND 1 17 Jan 07:29:04 07:33:08 24° 264° (W) 07:37:13 437.568
SEEDS 17 Jan 07:34:28 07:38:12 33° 287° (WNW) 07:41:54 437.485
CUTE 1.7 + AOD 2 17 Jan 07:39:30 07:42:17 17° 290° (WNW) 07:45:04 437.475
ZACube-1 17 Jan 07:54:03 07:58:38 79° 283° (WNW) 08:03:07 437.345
XW-2A 17 Jan 08:01:34 08:04:40 34° 285° (WNW) 08:07:43 145.665 - 145.685
AO-73 17 Jan 08:03:31 08:08:03 70° 283° (WNW) 08:12:28 145.935
FO-29 17 Jan 08:20:30 08:26:37 29° 263° (W) 08:32:14 435.910
TIGRISAT 17 Jan 08:30:06 08:34:14 45° 74° (ENE) 08:38:29 435.000
PRISM 17 Jan 08:39:39 08:41:08 12° 67° (ENE) 08:42:36 437.425
Oscar 11 17 Jan 08:41:45 08:45:47 39° 286° (WNW) 08:49:48 .
Max Valier Satellite 17 Jan 08:42:37 08:45:08 17° 95° (E) 08:47:38 145.860
UNISAT 6 17 Jan 08:44:02 08:48:21 76° 77° (ENE) 08:52:48 437.425
DELFI C3 17 Jan 08:45:05 08:48:36 31° 98° (E) 08:52:06 145.870
HO-68 17 Jan 08:50:20 08:53:03 12° 302° (WNW) 08:55:46 435.675
FALCONSAT 3 17 Jan 08:52:46 08:56:26 73° 12° (NNE) 09:00:05 435.103
EO-88 17 Jan 09:10:50 09:13:54 25° 97° (E) 09:16:56 145.990 - 145.960
RS-15 17 Jan 09:14:42 09:26:43 57° 304° (NW) 09:38:42 29.354- 29.394
YUBILEINY 17 Jan 09:18:57 09:26:18 29° 74° (ENE) 09:33:34 435.215
AIST 2D 17 Jan 09:38:17 09:41:04 22° 73° (ENE) 09:43:51 435.315
JUGNU 17 Jan 09:45:34 09:46:35 10° 162° (SSE) 09:47:36 437.505
POLYITAN 1 17 Jan 09:58:27 10:00:18 13° 67° (ENE) 10:02:10 437.675
TIGRISAT 17 Jan 10:09:32 10:11:07 12° 268° (W) 10:12:45 435.000
PCSat 17 Jan 10:11:36 10:17:00 78° 295° (WNW) 10:22:26 145.827
PRISM 17 Jan 10:12:06 10:15:58 42° 260° (W) 10:19:50 437.425
Max Valier Satellite 17 Jan 10:15:58 10:18:50 21° 288° (WNW) 10:21:41 145.860
BEESAT 3 17 Jan 10:16:36 10:20:27 49° 300° (WNW) 10:24:20 437.485
NANOSAT C BR1 17 Jan 10:16:50 10:19:45 19° 69° (ENE) 10:22:41 145.865
ESTCUBE 1 17 Jan 10:19:06 10:22:10 18° 95° (E) 10:25:14 437.505/2401.250
DELFI C3 17 Jan 10:20:56 10:23:00 14° 291° (WNW) 10:25:03 145.870
QB50P2 17 Jan 10:25:40 10:29:22 31° 72° (ENE) 10:33:07 145.880/145.840
FALCONSAT 3 17 Jan 10:32:02 10:35:22 33° 206° (SSW) 10:38:41 435.103
LO-87 17 Jan 10:42:45 10:46:15 46° 100° (E) 10:49:44 145.935 - 145.965
EO-88 17 Jan 10:45:16 10:47:14 14° 290° (WNW) 10:49:13 145.990 - 145.960
BEESAT 2 17 Jan 10:54:24 10:58:23 81° 299° (WNW) 11:02:26 435.950
EO-79 17 Jan 10:57:33 11:01:43 70° 76° (ENE) 11:05:56 145.935-145.965
O/OREOS (USA 219) 17 Jan 10:58:27 11:02:56 78° 72° (ENE) 11:07:24 437.305
DUCHIFAT 1 17 Jan 11:01:35 11:05:40 56° 75° (ENE) 11:09:48 145.980
SPROUT 17 Jan 11:05:55 11:07:44 12° 93° (E) 11:09:33 437.525
AIST 2D 17 Jan 11:12:01 11:14:08 15° 265° (W) 11:16:15 435.315
YUBILEINY 17 Jan 11:15:00 11:23:16 50° 271° (W) 11:31:30 435.215
Oscar 19 17 Jan 11:21:31 11:24:13 14° 65° (ENE) 11:26:55 437.125/150
JUGNU 17 Jan 11:30:49 11:34:54 20° 171° (S) 11:39:00 437.505
POLYITAN 1 17 Jan 11:31:38 11:35:38 42° 261° (W) 11:39:40 437.675
RS-15 17 Jan 11:35:30 11:42:40 17° 331° (NNW) 11:49:46 29.354- 29.394
AO-85 17 Jan 11:44:15 11:47:50 37° 113° (ESE) 11:51:36 145.980
NANOSAT C BR1 17 Jan 11:51:37 11:55:12 28° 263° (W) 11:58:50 145.865
ESTCUBE 1 17 Jan 11:55:00 11:58:58 31° 288° (WNW) 12:02:55 437.505/2401.250
QB50P2 17 Jan 12:02:30 12:05:10 16° 265° (W) 12:07:50 145.880/145.840
VELOX 1 17 Jan 12:11:52 12:16:01 41° 99° (E) 12:20:09 145.980
Gurwin Techsat 1B 17 Jan 12:12:39 12:17:25 35° 71° (ENE) 12:22:13 435.225
BUGSAT 1 17 Jan 12:18:45 12:22:46 81° 259° (W) 12:26:52 437.445
AO-91 17 Jan 12:25:47 12:29:10 64° 77° (ENE) 12:32:30 145.960
SPROUT 17 Jan 12:39:41 12:43:45 42° 286° (WNW) 12:47:47 437.525
DX 1 17 Jan 12:41:56 12:44:24 15° 95° (E) 12:46:51 434.975-435.025
Oscar 19 17 Jan 12:57:53 13:02:59 57° 259° (W) 13:08:07 437.125/150
JUGNU 17 Jan 13:18:46 13:23:17 23° 181° (S) 13:27:51 437.505
AO-85 17 Jan 13:26:08 13:28:25 15° 310° (NW) 13:30:46 145.980
AO-7 17 Jan 13:30:00 13:37:30 39° 64° (ENE) 13:45:01 .
SRMSAT 17 Jan 13:32:35 13:35:57 15° 166° (SSE) 13:39:20 437.500
50 SAT 17 Jan 13:43:46 13:46:52 80° 284° (WNW) 13:49:58 437.505
VELOX 1 17 Jan 13:49:45 13:52:02 14° 293° (WNW) 13:54:20 145.980
Gurwin Techsat 1B 17 Jan 13:53:16 13:57:21 23° 264° (W) 14:01:29 435.225
ITAMSAT 1 17 Jan 13:56:51 14:00:50 23° 68° (ENE) 14:04:49 435.822/435.867
RS-15 17 Jan 14:00:48 14:03:04 11° 10° (N) 14:05:20 29.354- 29.394
UKube-1 17 Jan 14:12:52 14:17:10 71° 284° (WNW) 14:21:26 .
DX 1 17 Jan 14:16:40 14:20:38 36° 287° (WNW) 14:24:36 434.975-435.025
